Terminal Aerodrome Forecast
Issued by NWS San Angelo, TX

Home | Current Version | Previous Version | Text Only | Print | Product List | Glossary On
Versions: 1 2 3 4 5 6 7 8 9 10 11 12
178
FTUS44 KSJT 122336
TAFSJT
TAF
KSJT 122336Z 1300/1324 07006KT P6SM SKC
     FM131600 12010KT P6SM SKC
     FM131900 17012G19KT P6SM SKC=

USA.gov is the U.S. government's official web portal to all federal, state and local government web resources and services.